Location: Unspecified
(0.0000°N, 0.0000°E)
Time: 06:35:00
(UTC+00:00)

Hubble Space Telescope - Visible Passes

Search period start: 02 April 2015 00:00
Search period end: 12 April 2015 00:00
Orbit: 543 x 547 km, 28.5° (Epoch: 31 March)

Date Brightness Start Highest point End Pass type
(mag) Time Alt. Az. Time Alt. Az. Time Alt. Az.
02 Apr 3.4 04:59:27 10° S 05:01:08 12° SSE 05:02:57 10° SE visible
02 Apr 0.8 18:34:15 10° WNW 18:38:24 84° NNE 18:42:28 11° ESE visible
02 Apr 3.7 20:17:09 10° WSW 20:17:58 13° WSW 20:17:58 13° WSW visible
03 Apr 3.1 04:50:06 10° SSW 04:52:51 17° SSE 04:55:41 10° ESE visible
03 Apr 1.1 18:25:55 10° WNW 18:30:02 64° SSW 18:34:09 10° SE visible
03 Apr 3.7 20:10:02 10° SW 20:10:29 11° SW 20:10:29 11° SW visible
04 Apr 2.7 04:42:31 17° S 04:44:32 24° SSE 04:47:58 10° E visible
05 Apr 2.0 04:35:03 29° S 04:36:11 34° SSE 04:40:00 10° E visible
06 Apr 1.3 04:27:33 49° SSE 04:27:47 50° SSE 04:31:51 10° ENE visible
07 Apr 1.2 04:20:01 61° E 04:20:01 61° E 04:23:34 10° ENE visible
08 Apr 2.0 04:12:26 38° NE 04:12:26 38° NE 04:15:08 10° NE visible
09 Apr 2.8 04:04:47 23° NNE 04:04:47 23° NNE 04:06:34 10° NE visible
10 Apr 3.4 03:57:04 15° NNE 03:57:04 15° NNE 03:57:53 10° NE visible
